Lapse_Rate
1.0 0.6 0.2 0.0 -0.1 -0.1 -0.4 -0.7 -1.1 -1.4 -1.7 -2.1 -2.3 -2.6 -2.7 -3.1 -3.4 -2.4 0.9 3.3 1.8 2.3 3.3 4.7 7.6 8.0 8.8 8.1 7.6 8.0 6.5 6.5 6.5 6.5 6.5 7.2 6.6 7.7 8.1 7.7 7.7 8.1 8.0 8.5 8.8
1.8 1.4 0.8 0.2 0.2 0.1 0.0 -0.2 -0.4 -0.9 -1.4 -1.7 -2.1 -2.3 -2.5 -2.7 -2.5 -0.6 1.6 0.9 1.6 2.7 5.2 5.5 8.0 8.4 7.9 7.7 7.8 6.8 6.5 6.5 6.5 6.6 6.5 6.9 7.0 7.3 7.1 7.2 7.2 7.7 8.4 8.6 8.7
2.3 2.0 1.6 1.3 0.7 0.3 0.1 -0.1 -0.2 -0.7 -1.2 -1.4 -1.7 -1.9 -2.0 -2.1 1.7 5.0 2.7 0.9 1.3 3.4 5.6 8.0 8.6 8.3 7.3 7.7 7.4 6.9 6.5 6.5 6.7 7.1 7.2 6.9 7.0 7.6 6.9 6.5 7.3 7.4 7.9 8.3 8.5
2.5 2.2 1.9 1.6 1.2 0.9 0.5 0.0 -0.3 -0.9 -1.4 -1.6 -1.4 -1.6 -1.5 -0.9 6.5 5.1 1.5 0.3 1.5 5.9 6.1 8.6 8.3 7.4 6.7 6.5 7.4 6.5 6.9 7.0 7.0 7.3 7.1 6.6 7.4 6.9 7.2 7.1 8.0 8.1 8.0 8.3 8.3
2.4 2.2 1.8 1.4 1.1 0.6 0.2 -0.3 -0.9 -1.3 -1.5 -1.5 -1.3 -1.2 -0.0 4.2 5.0 3.4 1.7 1.8 3.7 6.1 7.0 8.1 7.7 7.4 6.5 6.8 7.0 6.5 6.6 7.1 7.4 7.4 7.3 7.4 6.8 6.7 7.2 7.8 8.2 8.2 8.3 8.2 8.4
2.1 1.7 1.2 0.9 0.8 0.2 -0.2 -0.9 -1.7 -2.1 -2.3 -1.9 -1.4 -1.0 1.6 6.7 5.6 3.8 3.2 3.7 3.9 6.6 8.4 8.4 7.9 8.0 7.2 6.8 6.6 7.0 7.0 7.0 7.2 7.2 7.2 6.7 6.8 7.1 7.3 7.8 7.9 8.0 8.0 8.3 8.4
1.7 1.3 1.0 0.5 0.5 0.1 0.1 -0.5 -2.1 -2.4 -2.2 -2.2 -1.6 -0.7 2.1 5.4 4.0 3.9 4.4 4.2 5.0 5.9 8.0 8.6 7.7 7.9 7.6 6.5 7.6 7.2 6.5 6.5 6.7 7.0 6.6 7.2 6.5 6.5 7.6 7.8 7.6 8.0 8.0 8.2 8.4
1.8 1.2 1.0 0.5 0.3 -0.1 -0.4 -1.7 -1.9 -0.9 -1.6 -2.0 -1.6 0.1 5.4 2.9 4.2 3.9 3.9 4.5 5.6 8.4 8.3 8.5 8.4 8.1 7.5 7.6 6.9 6.5 6.5 6.5 6.5 6.6 6.9 6.9 6.5 6.5 7.8 7.5 7.5 7.8 8.0 8.0 8.2
1.9 1.5 0.7 0.3 -0.5 -0.8 -1.4 -1.6 0.6 1.8 0.2 -0.6 0.1 1.0 6.8 3.3 4.5 6.1 4.9 5.2 5.9 8.6 8.9 9.1 8.6 7.5 7.3 6.5 6.5 6.5 6.5 6.5 6.5 6.7 6.5 6.5 6.5 6.5 7.7 7.6 7.4 7.6 7.9 8.0 8.2
1.8 1.7 0.6 0.5 -0.3 -0.3 -1.7 -1.0 1.7 2.7 2.7 3.2 4.3 4.9 4.7 6.8 5.6 4.4 6.2 5.9 7.7 8.3 7.9 7.8 7.6 6.5 6.5 6.5 6.5 6.5 6.5 6.5 6.5 6.5 6.5 6.5 6.5 6.5 7.4 7.5 7.3 7.5 7.7 7.9 8.0
2.5 2.0 1.0 0.3 0.1 0.0 0.4 3.3 5.6 7.0 5.2 7.1 7.2 7.2 5.9 7.5 7.3 6.1 7.1 8.3 8.2 7.7 6.5 7.1 6.5 6.5 6.5 6.5 6.5 6.5 6.5 6.5 6.5 6.5 6.5 6.5 6.5 6.5 7.1 7.3 7.1 7.5 7.6 7.8 7.9
3.2 2.4 1.5 0.2 -0.6 0.1 3.3 6.0 7.2 6.8 7.0 3.7 2.4 5.8 4.7 6.2 7.3 6.7 7.9 7.3 7.0 6.5 6.5 6.5 6.5 6.5 6.5 6.5 6.5 6.5 6.5 6.5 6.5 6.5 6.5 6.5 6.5 6.5 6.4 6.8 7.3 7.3 7.5 7.7 8.0
3.6 2.9 2.2 0.5 -0.9 1.2 2.7 5.1 5.2 5.4 6.9 7.1 5.9 7.5 6.7 5.8 7.2 7.4 8.1 7.5 6.5 6.5 6.5 6.5 6.5 6.5 6.5 6.5 6.5 6.5 6.5 6.5 6.5 6.5 6.5 6.5 6.5 6.5 6.5 7.0 7.4 7.7 7.8 7.7 7.8
3.3 3.3 2.8 0.3 3.5 1.8 5.5 4.3 3.5 4.2 6.5 6.5 6.8 7.4 7.3 6.9 6.7 8.2 8.3 7.6 6.6 6.5 6.5 6.5 6.5 6.5 6.5 6.5 6.5 6.5 6.5 6.5 6.5 6.5 6.5 6.5 6.5 6.5 6.5 6.5 6.5 7.3 7.6 7.8 7.9
3.1 3.6 2.7 1.4 2.6 4.4 6.3 3.1 3.6 4.7 6.5 6.5 6.7 7.8 7.2 7.0 7.1 7.2 8.1 7.6 6.5 6.5 6.5 6.5 6.5 6.5 6.5 6.5 6.5 6.5 6.5 6.5 6.5 6.5 6.5 6.5 6.5 6.5 6.5 6.5 6.5 6.8 7.5 7.9 8.1
2.7 2.8 2.5 3.1 2.8 4.5 3.2 2.3 3.9 6.5 6.5 6.5 6.7 6.5 6.5 6.8 6.8 7.3 7.4 7.8 7.4 6.5 6.5 6.5 6.9 6.5 6.5 6.5 6.5 6.5 6.5 6.5 6.5 6.5 6.5 6.5 6.5 6.5 6.5 6.5 6.5 6.7 7.4 7.7 8.0
2.8 2.3 2.5 3.9 5.9 4.8 2.9 5.0 6.5 6.5 6.5 6.5 6.5 6.5 6.5 6.5 6.5 6.5 6.5 6.5 6.5 6.5 6.5 6.5 6.5 6.5 6.6 6.5 6.5 6.5 6.5 6.5 6.5 6.5 6.5 6.5 6.5 6.5 6.5 6.5 6.5 6.5 7.2 7.7 8.0
2.5 2.2 2.9 4.8 4.5 3.5 5.4 6.6 6.5 6.5 6.5 6.5 6.5 6.5 6.5 6.5 6.5 6.5 6.5 6.5 6.5 6.5 6.5 6.5 6.5 6.5 6.5 6.5 6.5 6.5 6.5 6.5 6.5 6.5 6.5 6.5 6.5 6.5 6.5 6.8 7.1 7.2 7.5 7.7 7.9
2.7 3.1 6.0 6.2 4.3 4.7 7.4 6.5 6.5 6.5 6.5 6.5 6.5 6.5 6.5 6.5 6.5 6.5 6.5 6.5 6.5 6.5 6.5 6.5 6.5 6.5 6.5 6.5 6.5 6.5 6.5 6.5 6.5 6.5 6.5 6.5 6.5 6.5 6.5 6.5 6.6 6.9 7.3 7.4 7.7
3.7 3.0 6.1 5.0 4.0 6.6 6.6 6.5 6.5 6.6 6.6 6.5 6.5 6.5 6.5 6.5 6.5 6.5 6.5 6.5 6.5 6.5 6.5 6.5 6.5 6.5 6.5 6.6 6.5 6.5 6.5 6.5 6.5 6.5 6.5 6.5 6.5 6.5 6.5 6.5 6.5 6.5 6.9 7.3 7.6
4.0 6.6 8.0 5.0 5.9 7.6 6.5 6.5 6.5 7.2 7.1 6.5 6.5 6.5 6.5 6.5 6.5 6.5 6.5 6.5 6.5 6.5 6.5 6.5 6.5 6.5 6.5 6.5 6.5 6.5 6.5 6.5 6.5 6.5 6.5 6.5 6.5 6.5 6.5 6.5 6.5 6.5 7.0 7.3 7.5
5.0 6.5 7.5 5.8 6.9 7.0 6.5 6.5 6.5 6.7 7.3 6.5 6.5 6.5 6.5 6.5 6.5 6.5 6.5 6.5 7.0 6.6 6.5 6.5 6.5 6.5 6.5 6.5 6.5 6.5 6.5 6.5 6.5 6.5 6.5 6.5 6.5 6.5 6.5 6.5 6.5 6.7 7.1 7.4 7.6
6.4 6.3 7.1 8.0 6.5 6.5 6.6 6.5 6.8 6.5 6.5 6.5 6.5 6.5 6.5 6.5 6.5 6.5 6.5 6.7 7.1 6.5 6.5 6.5 6.5 6.5 6.5 6.5 6.5 6.5 6.5 6.5 6.5 6.5 6.5 6.5 6.5 6.5 6.5 6.5 6.8 6.8 7.1 7.2 6.1
6.9 6.5 7.6 7.8 7.7 6.6 6.5 6.5 6.5 7.2 6.6 6.8 6.5 6.6 6.5 6.5 6.5 6.5 6.5 6.5 7.1 6.8 6.9 6.7 6.5 6.5 6.5 6.5 6.5 6.5 6.5 6.5 6.5 6.5 6.5 6.5 6.5 6.5 6.5 6.5 6.5 6.8 7.0 7.2 6.3
6.3 6.8 7.3 6.5 6.6 6.5 6.6 6.5 6.5 6.5 6.8 6.9 6.5 6.5 6.5 6.5 6.5 6.5 6.5 6.5 6.6 6.9 6.6 6.5 6.5 6.5 6.5 6.5 6.5 6.5 6.5 6.5 6.5 6.5 6.5 6.5 6.5 6.5 6.5 6.5 6.6 6.9 6.8 6.5 7.1
7.2 7.1 7.3 7.0 7.2 6.6 6.5 6.5 6.5 6.5 6.5 6.5 6.5 6.5 6.5 6.5 6.5 6.5 6.5 6.5 6.5 6.5 6.5 6.5 6.5 6.5 6.5 6.5 6.5 6.5 6.5 6.5 6.5 6.5 6.5 6.5 6.5 6.5 6.7 7.0 6.7 6.7 6.7 6.6 6.5
7.0 7.3 6.5 6.9 6.6 6.5 6.5 6.5 6.5 6.6 6.8 7.0 6.6 6.5 6.5 6.5 7.1 7.3 7.4 7.2 6.7 6.5 6.5 6.5 6.5 6.5 6.5 6.5 6.5 6.5 6.5 6.5 6.5 6.5 6.5 6.5 6.5 6.5 6.5 6.5 6.6 6.6 6.6 6.7 5.2
Wind_Speed
24 25 26 26 25 25 24 24 24 23 22 21 21 19 19 19 15 4 9 12 10 14 23 19 15 15 10 6 1 0 2 2 3 4 2 12 6 5 5 14 4 5 8 16 23
26 27 27 27 27 26 25 24 24 25 23 21 20 19 18 17 5 11 15 13 17 29 23 25 20 20 7 8 4 3 2 5 4 4 4 11 11 12 6 14 6 10 14 23 23
27 28 28 28 29 28 28 26 25 25 24 21 19 17 17 14 5 7 3 19 23 28 20 18 21 17 8 6 7 6 4 2 4 7 5 10 10 10 11 12 10 18 23 25 23
28 28 28 29 30 30 30 30 29 27 24 21 17 14 14 3 6 0 9 21 25 21 23 18 19 11 9 9 9 5 11 8 3 2 3 12 9 9 11 3 11 18 26 26 24
28 28 29 30 31 32 32 31 30 29 25 20 14 9 4 4 12 0 15 18 23 20 24 17 23 12 12 9 9 11 5 4 11 11 8 10 13 10 12 5 15 22 25 24 23
28 28 29 30 32 33 34 33 31 30 25 18 10 4 3 8 3 7 14 21 23 22 21 17 16 12 9 6 13 6 12 10 8 11 6 12 9 7 9 15 18 24 26 23 23
28 28 29 30 33 34 35 35 34 30 24 16 11 6 5 15 7 6 16 17 25 26 25 20 9 15 5 5 10 10 9 7 11 10 6 9 8 13 12 17 21 21 23 22 21
30 32 32 32 34 36 35 34 30 17 7 9 15 7 8 2 7 1 10 9 14 16 17 12 8 14 3 3 1 4 5 7 6 12 8 15 12 16 19 20 21 21 20 21 22
30 32 35 36 38 40 36 28 14 13 16 21 9 5 7 5 5 12 12 9 15 13 9 10 10 5 4 11 7 2 7 9 4 14 7 15 13 14 23 20 21 21 21 21 20
31 32 37 38 40 42 36 12 2 9 8 2 5 4 6 3 5 8 11 19 9 16 9 8 10 11 10 12 13 8 8 5 9 6 11 16 17 5 22 23 23 23 21 21 22
32 33 34 40 39 40 15 0 3 3 2 7 3 6 4 3 7 5 18 16 11 17 14 15 12 22 24 17 13 9 7 13 9 6 6 13 16 13 19 21 21 22 22 22 24
32 34 35 38 40 23 7 6 7 7 13 14 22 17 16 4 2 12 21 13 13 16 15 8 25 20 14 17 19 17 17 17 9 6 4 7 11 10 18 24 24 24 23 24 20
31 33 35 37 37 4 4 7 7 4 6 9 8 7 8 12 7 15 26 16 20 21 27 24 6 20 17 15 19 23 23 18 8 4 5 8 12 6 13 15 18 21 21 18 23
31 31 32 39 4 7 2 6 12 3 4 6 5 5 6 7 9 13 25 16 12 26 22 21 19 23 21 23 21 23 20 21 17 9 10 4 13 8 13 18 21 21 22 24 23
31 31 31 13 6 6 6 16 12 3 6 5 4 5 8 10 1 12 26 14 20 18 15 18 24 21 25 29 20 17 14 17 19 14 12 15 9 16 8 15 22 23 25 25 26
33 34 31 2 2 7 14 16 3 4 9 2 3 2 5 10 3 4 16 13 9 11 19 18 8 22 18 20 22 11 10 8 3 9 16 22 14 16 12 19 18 22 24 24 25
33 35 15 6 6 22 12 3 4 6 8 6 4 7 6 2 5 5 18 26 17 16 16 20 13 15 17 17 20 20 17 8 10 11 14 14 13 19 9 17 19 21 25 26 27
35 27 7 4 13 14 5 3 8 5 5 10 9 14 3 6 1 2 13 23 22 19 14 18 15 20 19 19 13 28 23 9 15 16 14 7 15 13 17 20 17 19 21 22 23
28 6 3 3 18 5 3 4 3 6 9 13 12 3 1 3 6 4 2 20 20 12 14 19 18 13 20 18 20 19 25 23 12 1 5 12 15 12 11 17 22 19 18 19 23
7 5 4 16 10 2 2 4 3 10 14 8 5 7 6 10 5 4 3 7 6 3 4 5 7 13 27 17 22 14 19 10 13 14 15 8 10 14 18 20 19 20 20 20 21
3 5 7 24 3 3 3 5 6 9 14 7 7 7 7 6 7 5 6 8 13 6 5 2 6 3 15 23 23 11 20 13 12 12 10 9 11 7 16 19 22 23 22 22 21
3 3 9 11 5 3 4 12 9 9 8 5 6 5 3 5 4 5 3 6 14 10 1 4 3 11 13 12 21 24 19 26 12 12 15 8 8 2 12 11 15 19 19 19 18
3 3 4 6 4 7 8 7 9 9 8 6 5 6 5 4 4 4 5 4 13 12 7 6 3 11 10 9 9 24 22 24 21 14 19 12 7 9 10 8 11 12 12 12 11
3 4 2 3 1 4 8 6 8 8 3 7 6 6 6 1 2 3 5 4 10 8 10 4 1 9 14 9 4 5 14 23 24 17 18 22 17 9 11 9 13 14 15 10 10
2 2 3 4 5 10 5 6 12 8 7 5 2 7 6 2 3 4 6 6 4 9 6 4 2 5 6 8 8 10 13 11 19 25 23 21 24 19 15 13 14 10 9 11 11
2 3 1 5 8 8 6 4 9 9 9 8 4 10 11 3 4 7 8 4 3 5 4 6 2 3 10 10 12 14 15 15 17 19 19 22 25 8 14 19 18 18 18 15 14
1 2 2 2 4 6 4 4 8 15 7 6 9 15 12 11 10 14 12 12 13 9 5 4 2 3 7 8 13 15 21 20 17 16 16 22 18 16 19 13 18 18 16 16 14
Wind_Direction
355 352 349 346 343 340 336 333 330 326 324 323 324 327 327 327 321 174 238 220 181 151 146 148 160 155 159 165 198 187 294 264 227 202 193 156 132 124 117 143 173 162 148 142 152
350 348 346 342 339 335 331 328 324 321 319 318 320 321 324 329 301 256 241 202 168 144 154 161 160 157 168 167 185 207 233 223 185 225 220 173 160 151 152 159 136 99 120 140 153
348 345 343 339 336 331 327 324 319 315 312 313 315 318 319 325 280 250 209 192 174 159 160 163 153 161 165 163 185 180 230 241 218 219 196 176 175 160 147 185 183 160 150 154 163
345 342 338 336 332 327 324 319 315 310 307 306 309 313 316 283 260 289 343 164 170 164 151 151 163 175 184 184 192 211 241 248 280 139 199 189 170 180 179 148 184 166 160 160 170
343 338 336 333 329 325 320 316 313 306 300 296 296 304 311 225 247 83 112 142 162 163 163 167 173 180 197 189 179 236 238 215 255 278 250 185 190 179 195 98 149 153 161 168 174
340 336 333 330 326 322 318 316 310 301 291 282 266 238 210 246 235 188 148 155 168 173 177 172 185 182 188 204 207 206 225 264 266 266 193 188 192 198 170 134 145 160 167 174 183
340 335 333 331 326 322 321 318 310 298 280 260 224 188 216 242 103 160 167 174 175 178 180 188 170 186 174 194 231 251 259 261 235 213 203 187 199 217 156 149 156 176 171 178 187
342 337 336 334 329 324 325 322 319 316 278 209 180 177 246 219 244 229 168 177 196 195 196 172 175 205 228 320 249 227 212 226 158 192 186 178 248 211 167 171 169 175 182 183 190
341 338 336 336 331 328 328 327 333 57 102 122 134 212 250 122 205 195 180 175 175 177 184 177 185 200 223 239 270 239 227 216 211 192 156 199 255 205 181 184 172 181 188 189 192
342 341 337 336 332 330 327 329 158 91 114 200 104 244 235 222 166 155 175 147 155 168 181 168 199 214 207 199 212 215 222 230 231 171 190 207 241 197 189 190 184 186 189 195 194
341 340 340 332 335 330 335 308 329 198 311 237 206 281 285 320 148 155 164 144 139 169 183 193 196 210 213 211 224 219 236 239 237 238 223 226 245 218 195 201 195 190 193 198 203
342 340 339 333 334 331 333 65 73 287 301 254 246 255 259 325 212 155 170 158 171 182 175 176 222 210 207 207 217 225 234 242 257 260 279 251 259 227 197 207 199 194 194 203 199
342 340 335 335 330 12 358 80 8 319 257 286 219 229 224 188 222 185 181 192 189 192 197 200 189 204 197 200 208 220 223 219 232 337 240 255 255 209 213 213 207 210 208 207 199
340 339 333 335 329 345 76 335 337 241 277 261 228 242 171 163 231 198 196 179 189 205 199 220 211 192 204 217 206 222 219 237 244 258 250 229 265 213 208 206 208 209 207 208 207
338 336 333 343 301 320 325 327 321 187 288 114 146 146 154 196 28 197 187 205 201 185 178 202 201 197 211 210 204 227 207 221 239 247 263 236 250 248 207 213 216 212 212 211 209
336 332 334 334 274 276 308 312 186 226 241 102 90 149 173 222 238 102 188 215 204 188 212 207 206 194 206 209 201 189 173 193 210 241 239 239 233 249 210 216 216 217 220 215 212
331 324 331 315 335 325 316 291 206 233 350 12 359 345 319 268 219 201 188 193 189 188 193 202 191 201 192 184 200 196 181 186 218 219 238 220 229 240 232 218 218 210 216 216 211
330 322 325 255 306 326 314 232 230 16 349 349 335 310 214 347 204 269 193 194 205 205 190 201 212 195 190 202 187 201 199 205 214 233 244 196 237 237 223 234 231 233 224 219 213
331 338 339 347 326 316 308 229 335 9 350 331 323 309 328 1 333 322 171 202 200 213 210 204 221 191 179 194 184 196 211 216 256 150 262 223 247 264 239 224 217 221 225 217 212
330 334 317 339 337 322 288 303 322 12 341 328 324 354 342 348 355 2 88 0 247 39 317 191 219 202 195 189 201 186 180 185 215 232 238 219 247 234 198 213 212 215 213 221 219
7 350 354 338 297 38 19 321 308 335 340 323 321 309 326 343 327 3 28 47 5 328 5 329 232 133 171 204 190 181 189 206 202 221 227 247 246 208 219 213 213 216 213 215 217
355 351 352 337 39 13 350 322 308 328 340 312 304 312 309 342 327 20 81 43 0 348 35 28 269 220 203 189 214 203 196 197 205 187 225 259 252 263 228 221 228 225 223 228 226
357 295 337 337 39 354 332 306 314 343 339 327 322 354 341 344 299 45 33 31 6 17 22 352 223 201 227 214 199 218 215 207 217 233 217 210 213 250 253 263 232 238 239 233 223
334 340 338 42 65 356 339 320 328 339 348 347 355 351 344 332 341 328 356 4 349 8 346 322 330 256 223 230 22 226 219 212 213 221 225 226 235 227 267 252 259 261 264 250 234
356 346 342 320 344 326 305 298 309 349 343 9 29 31 344 288 318 346 7 334 357 7 6 8 300 327 305 299 293 270 262 243 234 233 230 239 237 232 246 279 276 276 269 277 237
309 324 332 289 288 316 315 305 311 334 331 314 305 6 334 0 339 312 343 346 338 352 27 356 283 305 301 293 284 275 255 251 244 242 254 258 260 260 240 238 251 271 285 280 276
220 227 177 283 277 296 297 300 312 324 305 335 326 325 312 323 326 306 283 270 270 289 311 312 288 252 258 304 308 271 244 242 243 243 240 242 251 254 249 240 247 247 250 250 245